Change the Weather History Date:

Wednesday, October 29, 2014

  Actual Average Record
Temperature  
Mean Temperature 39 °F 43 °F  
Max Temperature 47 °F 54 °F 83 °F (1937)
Min Temperature 30 °F 32 °F -4 °F (1925)
Degree Days  
Heating Degree Days 26 22  
Month to date heating degree days 472 478  
Since 1 July heating degree days 667 691  
Cooling Degree Days 0 0  
Month to date cooling degree days 0 2  
Year to date cooling degree days 544 612  
Moisture  
Dew Point 31 °F    
Average Humidity 76    
Maximum Humidity 92    
Minimum Humidity 60    
Precipitation  
Precipitation 0.00 in 0.07 in 2.27 in (1896)
Month to date precipitation 2.17 2.31  
Year to date precipitation 33.41 31.94  
Snow  
Snow 0.00 in 0.00 in 1.00 in (1929)
Month to date snowfall 0.0 0.3  
Since 1 July snowfall 0.0 0.3  
Since 1 September snowfall 0.0 0.3  
Snow Depth 0.00 in    
Sea Level Pressure  
Sea Level Pressure 30.13 in    
Wind  
Wind Speed 9 mph (WNW)    
Max Wind Speed 23 mph    
Max Gust Speed 29 mph    
Visibility 9 miles    
Events      
T = Trace of Precipitation, MM = Missing Value Source: NWS Daily Summary

Daily Weather History Graph

Daily Weather History Graph

Search for Another Location

Airport or City:

Trip Planner

Search our weather history database for the weather conditions in past years. The results will help you decide how hot, cold, wet, or windy it might be!

Date:

Astronomy

Oct. 29, 2014 Rise Set
Actual Time 7:44 AM CDT 6:09 PM CDT
Civil Twilight 7:14 AM CDT 6:38 PM CDT
Nautical Twilight 6:41 AM CDT 7:11 PM CDT
Astronomical Twilight 6:08 AM CDT 7:44 PM CDT
Moon 1:05 PM CDT (10/29) 11:18 PM CDT (10/29)
Length of Visible Light 11h 23m
Length of Day
10h 24m
Waxing Crescent, 34% of the Moon is Illuminated
Oct 29
Waxing Crescent
Oct 30
First Quarter
Nov 6
Full
Nov 14
Last Quarter
Nov 22
New

Hourly Weather History & Observations

Time (CDT) Temp. Windchill Dew Point Humidity Pressure Visibility Wind Dir Wind Speed Gust Speed Precip Events Conditions
12:53 AM 41.0 °F 32.8 °F 30.9 °F 67% 30.06 in 10.0 mi WNW 16.1 mph 25.3 mph N/A   Overcast
1:53 AM 41.0 °F 32.5 °F 30.9 °F 67% 30.06 in 10.0 mi WNW 17.3 mph - N/A   Overcast
2:53 AM 39.0 °F 31.4 °F 30.9 °F 73% 30.08 in 10.0 mi WNW 12.7 mph - N/A   Mostly Cloudy
3:22 AM 39.9 °F 30.5 °F 30.9 °F 70% 30.07 in 10.0 mi WNW 19.6 mph 27.6 mph N/A   Overcast
3:31 AM 39.9 °F 30.5 °F 30.9 °F 70% 30.07 in 10.0 mi WNW 19.6 mph 27.6 mph N/A   Overcast
3:53 AM 39.9 °F 31.1 °F 30.9 °F 70% 30.09 in 10.0 mi NW 17.3 mph - N/A   Overcast
4:53 AM 39.9 °F 30.8 °F 30.9 °F 70% 30.09 in 10.0 mi NW 18.4 mph 24.2 mph N/A   Overcast
5:53 AM 39.0 °F 29.6 °F 30.0 °F 70% 30.11 in 10.0 mi NW 18.4 mph - N/A   Overcast
6:53 AM 37.0 °F 28.9 °F 28.9 °F 73% 30.13 in 10.0 mi NW 12.7 mph - N/A   Clear
7:53 AM 35.1 °F 25.5 °F 28.9 °F 78% 30.16 in 10.0 mi NW 15.0 mph - N/A   Clear
8:53 AM 36.0 °F 27.5 °F 28.9 °F 76% 30.18 in 10.0 mi NW 12.7 mph - N/A   Clear
9:53 AM 37.9 °F 28.9 °F 28.9 °F 70% 30.20 in 10.0 mi NW 16.1 mph 28.8 mph N/A   Scattered Clouds
10:31 AM 39.0 °F 30.3 °F 30.0 °F 70% 30.19 in 10.0 mi NW 16.1 mph - N/A   Mostly Cloudy
10:53 AM 39.0 °F 31.0 °F 30.0 °F 70% 30.21 in 10.0 mi NNW 13.8 mph - N/A   Overcast
11:53 AM 41.0 °F 33.5 °F 30.9 °F 67% 30.21 in 10.0 mi WNW 13.8 mph 19.6 mph N/A   Overcast
12:53 PM 43.0 °F 38.8 °F 32.0 °F 65% 30.20 in 10.0 mi NW 6.9 mph 18.4 mph N/A   Mostly Cloudy
1:39 PM 43.0 °F 38.8 °F 32.0 °F 65% 30.17 in 10.0 mi WNW 6.9 mph - N/A   Partly Cloudy
1:53 PM 43.0 °F 38.8 °F 32.0 °F 65% 30.18 in 10.0 mi WNW 6.9 mph - N/A   Partly Cloudy
2:53 PM 46.0 °F 41.9 °F 33.1 °F 61% 30.17 in 10.0 mi NW 8.1 mph - N/A   Clear
3:53 PM 46.9 °F - 33.1 °F 59% 30.15 in 10.0 mi NW 5.8 mph - N/A   Clear
4:53 PM 46.9 °F - 33.1 °F 59% 30.14 in 10.0 mi WSW 3.5 mph - N/A   Clear
5:53 PM 45.0 °F - 33.1 °F 63% 30.13 in 10.0 mi Calm Calm - N/A   Clear
6:16 PM 39.9 °F - 32.0 °F 73% 30.11 in 2.0 mi Calm Calm - N/A   Haze
6:24 PM 39.0 °F - 32.0 °F 76% 30.11 in 9.0 mi Calm Calm - N/A   Clear
6:53 PM 37.0 °F 34.5 °F 30.9 °F 79% 30.13 in 10.0 mi SE 3.5 mph - N/A   Clear
7:53 PM 33.1 °F - 28.9 °F 85% 30.13 in 4.0 mi Calm Calm - N/A   Clear
8:53 PM 30.9 °F 27.5 °F 28.9 °F 92% 30.13 in 8.0 mi South 3.5 mph - N/A   Clear
9:53 PM 33.1 °F 27.7 °F 30.0 °F 89% 30.13 in 9.0 mi South 5.8 mph - N/A   Clear
10:53 PM 32.0 °F 27.5 °F 30.0 °F 92% 30.13 in 10.0 mi South 4.6 mph - N/A   Clear
11:53 PM 33.1 °F 28.7 °F 30.9 °F 92% 30.12 in 10.0 mi South 4.6 mph - N/A   Clear